DW3800 Weather Reports


Display with metric or nautical units.
time (UTC)temp
F
wind
direction
speed
MPH
gust
MPH
rain 1hr
in
rain 24hr
in
rain mn
in
humidity
%
barometer
mb
20260905204647 83 230 1.0 2.0 0.00 0.00 0.00 68 1019.6
20260905204142 83 203 1.0 6.0 0.00 0.00 0.00 70 1019.5
20260905203637 84 306 1.0 3.0 0.00 0.00 0.00 70 1019.4
20260905203132 83 231 1.0 3.0 0.00 0.00 0.00 69 1019.7
20260905202628 83 27 0.0 2.0 0.00 0.00 0.00 70 1019.5
20260905202123 83 170 0.0 2.0 0.00 0.00 0.00 70 1019.7
20260905201618 83 327 4.0 6.0 0.00 0.00 0.00 71 1019.8
20260905201118 84 314 1.0 5.0 0.00 0.00 0.00 71 1019.9
20260905200614 84 201 0.0 1.0 0.00 0.00 0.00 70 1019.8
20260905200109 83 189 0.0 1.0 0.00 0.00 0.00 70 1019.9
20260905195601 83 133 1.0 3.0 0.00 0.00 0.00 70 1019.9
20260905195057 83 65 2.0 3.0 0.00 0.00 0.00 70 1020.0
20260905194557 83 157 1.0 3.0 0.00 0.00 0.00 71 1020.3
20260905194056 83 157 0.0 1.0 0.00 0.00 0.00 71 1020.1
20260905193551 83 14 3.0 3.0 0.00 0.00 0.00 70 1020.1
20260905193046 83 184 0.0 1.0 0.00 0.00 0.00 71 1020.3
20260905192542 82 185 1.0 3.0 0.00 0.00 0.00 71 1020.2
20260905192038 82 321 2.0 3.0 0.00 0.00 0.00 71 1020.3
20260905191536 83 187 1.0 2.0 0.00 0.00 0.00 71 1020.2
20260905191036 82 78 1.0 2.0 0.00 0.00 0.00 73 1020.3
20260905190533 83 132 2.0 3.0 0.00 0.00 0.00 73 1020.4
20260905190028 82 127 1.0 3.0 0.00 0.00 0.00 73 1020.3
20260905185527 81 181 0.0 1.0 0.00 0.00 0.00 73 1020.3
20260905185026 81 7 2.0 5.0 0.00 0.00 0.00 75 1020.3
20260905184521 81 102 1.0 5.0 0.00 0.00 0.00 75 1020.1
20260905184019 81 18 3.0 3.0 0.00 0.00 0.00 74 1020.3
20260905183514 81 159 1.0 2.0 0.00 0.00 0.00 75 1020.0
20260905183009 82 154 1.0 2.0 0.00 0.00 0.00 75 1020.4
20260905182509 80 147 0.0 5.0 0.00 0.00 0.00 77 1020.2
20260905182003 80 123 0.0 3.0 0.00 0.00 0.00 77 1020.2
20260905181458 79 64 1.0 3.0 0.00 0.00 0.00 78 1020.4
20260905180957 79 31 4.0 6.0 0.00 0.00 0.00 79 1020.5
20260905180452 80 136 0.0 3.0 0.00 0.00 0.00 78 1020.5
20260905175947 79 129 0.0 2.0 0.00 0.00 0.00 79 1020.5
20260905175447 79 131 2.0 3.0 0.00 0.00 0.00 79 1020.7
20260905174943 79 7 1.0 6.0 0.00 0.00 0.00 80 1020.6
20260905174437 80 221 1.0 1.0 0.00 0.00 0.00 79 1020.7
20260905173933 79 137 0.0 3.0 0.00 0.00 0.00 80 1020.9
20260905173430 78 9 2.0 2.0 0.00 0.00 0.00 80 1021.0
20260905172925 78 80 2.0 3.0 0.00 0.00 0.00 81 1021.2
20260905172422 77 74 1.0 5.0 0.00 0.00 0.00 83 1021.2
20260905171918 78 112 1.0 3.0 0.00 0.00 0.00 82 1021.1
20260905171410 77 132 1.0 2.0 0.00 0.00 0.00 84 1020.9
20260905170905 76 163 0.0 3.0 0.00 0.00 0.00 84 1021.3
20260905170401 76 91 1.0 3.0 0.00 0.00 0.00 85 1020.9
20260905165901 75 357 2.0 3.0 0.00 0.00 0.00 86 1021.1
20260905165355 75 357 1.0 2.0 0.00 0.00 0.00 86 1021.0
20260905164850 75 135 3.0 6.0 0.00 0.00 0.00 86 1021.1
20260905164345 75 56 1.0 1.0 0.00 0.00 0.00 87 1021.3
20260905163840 74 133 1.0 1.0 0.00 0.00 0.00 89 1021.4
20260905163336 73 332 1.0 1.0 0.00 0.00 0.00 90 1021.3
20260905162832 73 232 1.0 1.0 0.00 0.00 0.00 90 1021.2
20260905162326 73 247 1.0 1.0 0.00 0.00 0.00 91 1021.3
20260905161821 73 79 1.0 3.0 0.00 0.00 0.00 90 1021.5
20260905161321 73 272 0.0 1.0 0.00 0.00 0.00 91 1021.3
20260905160819 72 141 0.0 2.0 0.00 0.00 0.00 92 1021.3
20260905160314 72 52 2.0 3.0 0.00 0.00 0.00 92 1021.4
20260905155808 73 134 1.0 2.0 0.00 0.00 0.00 92 1021.2
20260905155307 73 72 3.0 3.0 0.00 0.00 0.00 91 1020.8
20260905154801 73 324 2.0 3.0 0.00 0.00 0.00 91 1020.9
20260905154257 72 24 1.0 5.0 0.00 0.00 0.00 93 1020.6
20260905153752 71 230 1.0 1.0 0.00 0.00 0.00 95 1020.8
20260905153248 71 15 1.0 3.0 0.00 0.00 0.00 96 1020.9
20260905152743 70 198 0.0 5.0 0.00 0.00 0.00 97 1020.8
20260905152237 70 10 0.0 1.0 0.00 0.00 0.00 97 1020.9
20260905151736 70 101 0.0 2.0 0.00 0.00 0.00 98 1020.8
20260905151233 70 249 0.0 2.0 0.00 0.00 0.00 99 1020.6
20260905150732 69 291 0.0 2.0 0.00 0.00 0.00 99 1020.7
20260905150232 69 19 1.0 3.0 0.00 0.00 0.00 99 1020.7
20260905145729 69 288 0.0 0.0 0.00 0.00 0.00 99 1020.8
20260905145224 69 357 2.0 5.0 0.00 0.00 0.00 99 1020.9
20260905144723 69 307 0.0 2.0 0.00 0.00 0.00 99 1020.7
20260905144218 69 235 0.0 0.0 0.00 0.00 0.00 99 1020.8
20260905143717 68 49 0.0 2.0 0.00 0.00 0.00 99 1020.6
20260905143217 69 323 1.0 1.0 0.00 0.00 0.00 99 1020.8
20260905142716 68 68 0.0 0.0 0.00 0.00 0.00 99 1020.8
20260905142210 68 343 0.0 1.0 0.00 0.00 0.00 99 1020.7
20260905141706 68 17 0.0 2.0 0.00 0.00 0.00 99 1020.9
20260905141202 68 247 0.0 0.0 0.00 0.00 0.00 99 1020.8
20260905140657 68 175 0.0 0.0 0.00 0.00 0.00 99 1020.7
20260905140151 68 107 0.0 1.0 0.00 0.00 0.00 99 1020.9
20260905135646 68 323 1.0 3.0 0.00 0.00 0.00 99 1020.6
20260905135142 68 271 0.0 1.0 0.00 0.00 0.00 99 1020.4
20260905134636 68 324 0.0 2.0 0.00 0.00 0.00 99 1020.7
20260905134134 68 53 1.0 1.0 0.00 0.00 0.00 99 1020.6
20260905133630 68 67 0.0 1.0 0.00 0.00 0.00 99 1020.6
20260905133125 68 339 0.0 1.0 0.00 0.00 0.00 99 1020.5
20260905132624 68 122 0.0 1.0 0.00 0.00 0.00 99 1020.3
20260905132119 68 15 1.0 2.0 0.00 0.00 0.00 99 1020.2
20260905131614 68 288 0.0 1.0 0.00 0.00 0.00 99 1019.9
20260905131104 68 64 0.0 3.0 0.00 0.00 0.00 99 1019.8
20260905130603 68 162 0.0 0.0 0.00 0.00 0.00 99 1019.6
20260905130058 68 105 0.0 7.0 0.00 0.00 0.00 99 1019.4
20260905125557 68 336 1.0 3.0 0.00 0.00 0.00 99 1019.3
20260905125053 68 129 0.0 3.0 0.00 0.00 0.00 99 1019.2
20260905124550 67 314 3.0 3.0 0.00 0.00 0.00 99 1019.2
20260905124045 67 334 3.0 5.0 0.00 0.00 0.00 99 1019.1
20260905123540 67 306 2.0 3.0 0.00 0.00 0.00 99 1019.2
20260905123038 67 297 0.0 3.0 0.00 0.00 0.00 99 1019.2
20260905122537 67 92 1.0 5.0 0.00 0.00 0.00 99 1019.5
20260905122032 67 308 2.0 5.0 0.00 0.00 0.00 99 1019.3
20260905121531 67 50 1.0 3.0 0.00 0.00 0.00 99 1019.5
20260905121027 67 211 1.0 2.0 0.00 0.00 0.00 99 1019.4
20260905120520 67 87 0.0 2.0 0.00 0.00 0.00 99 1019.3
20260905120016 67 92 0.0 0.0 0.00 0.00 0.00 99 1019.4
20260905115515 67 334 0.0 3.0 0.00 0.00 0.00 99 1019.2
20260905115010 67 20 2.0 3.0 0.00 0.00 0.00 99 1019.0
20260905114509 67 70 0.0 1.0 0.00 0.00 0.00 99 1019.0
20260905114008 67 332 0.0 2.0 0.00 0.00 0.00 99 1019.0
20260905113504 67 302 3.0 3.0 0.00 0.00 0.00 99 1018.9
20260905112959 67 39 1.0 2.0 0.00 0.00 0.00 99 1019.2
20260905112454 67 331 1.0 2.0 0.00 0.00 0.00 99 1019.1
20260905111949 67 310 0.0 2.0 0.00 0.00 0.00 99 1019.0
20260905111444 67 323 2.0 3.0 0.00 0.00 0.00 99 1019.1
20260905110943 67 300 1.0 2.0 0.00 0.00 0.00 99 1018.8
20260905110443 67 281 1.0 2.0 0.00 0.00 0.00 99 1018.6
20260905105937 67 336 1.0 2.0 0.00 0.00 0.00 99 1018.6
20260905105432 67 24 0.0 2.0 0.00 0.00 0.00 99 1018.9
20260905104931 67 280 1.0 2.0 0.00 0.00 0.00 99 1018.6
20260905104427 67 330 0.0 1.0 0.00 0.00 0.00 99 1018.4
20260905103922 67 18 0.0 0.0 0.00 0.00 0.00 99 1018.6
20260905103417 67 15 0.0 0.0 0.00 0.00 0.00 99 1018.5
20260905102913 67 347 0.0 0.0 0.00 0.00 0.00 99 1018.5
20260905102409 67 11 0.0 0.0 0.00 0.00 0.00 99 1018.9
20260905101904 67 292 0.0 0.0 0.00 0.00 0.00 99 1018.9
20260905101402 67 148 0.0 0.0 0.00 0.00 0.00 99 1018.8
20260905100857 66 281 0.0 0.0 0.00 0.00 0.00 99 1018.4
20260905100353 66 280 0.0 0.0 0.00 0.00 0.00 99 1018.3
20260905095852 66 12 1.0 2.0 0.00 0.00 0.00 99 1018.1
20260905095347 66 306 0.0 0.0 0.00 0.00 0.00 99 1018.0
20260905094841 66 331 0.0 2.0 0.00 0.00 0.00 99 1017.9
20260905094337 66 333 0.0 2.0 0.00 0.00 0.00 99 1018.0
20260905093836 66 348 1.0 7.0 0.00 0.00 0.00 99 1017.9
20260905093332 66 18 0.0 3.0 0.00 0.00 0.00 99 1018.0
20260905092828 66 24 0.0 5.0 0.00 0.00 0.00 99 1018.0
20260905092327 66 347 0.0 5.0 0.00 0.00 0.00 99 1018.1
20260905091822 66 101 0.0 6.0 0.00 0.00 0.00 99 1018.3
20260905091322 66 22 0.0 3.0 0.00 0.00 0.00 99 1018.3
20260905090820 66 21 0.0 3.0 0.00 0.00 0.00 99 1018.3
20260905090317 66 342 3.0 7.0 0.00 0.00 0.00 99 1018.6
20260905085811 66 280 2.0 5.0 0.00 0.00 0.00 99 1018.4
20260905085310 66 43 0.0 6.0 0.00 0.00 0.00 99 1018.3
20260905084806 66 16 0.0 5.0 0.00 0.00 0.00 99 1018.3
20260905084305 66 39 1.0 5.0 0.00 0.00 0.00 99 1018.5
20260905083801 66 343 2.0 8.0 0.00 0.00 0.00 99 1018.4
20260905083256 66 13 0.0 1.0 0.00 0.00 0.00 99 1018.5
20260905082752 66 291 3.0 7.0 0.00 0.00 0.00 99 1018.8
20260905082248 66 63 1.0 3.0 0.00 0.00 0.00 99 1018.5
20260905081747 66 352 0.0 1.0 0.00 0.00 0.00 99 1018.6
20260905081243 66 94 0.0 6.0 0.00 0.00 0.00 99 1018.9
20260905080737 66 2 1.0 2.0 0.00 0.00 0.00 99 1018.8
20260905080237 66 40 0.0 1.0 0.00 0.00 0.00 99 1018.6
20260905075736 66 341 0.0 1.0 0.00 0.00 0.00 99 1018.6
20260905075235 66 8 0.0 2.0 0.00 0.00 0.00 99 1018.6
20260905074734 66 66 0.0 7.0 0.00 0.00 0.00 99 1018.8
20260905074230 66 37 1.0 3.0 0.00 0.00 0.00 99 1018.6
20260905073725 66 310 1.0 5.0 0.00 0.00 0.00 99 1018.8
20260905073221 66 308 0.0 1.0 0.00 0.00 0.00 99 1018.6
20260905072720 66 322 0.0 9.0 0.00 0.00 0.00 99 1019.0
20260905072216 66 330 0.0 3.0 0.00 0.00 0.00 99 1018.9
20260905071712 66 359 0.0 1.0 0.00 0.00 0.00 99 1018.8
20260905071208 66 13 3.0 6.0 0.00 0.00 0.00 99 1018.8
20260905070703 66 6 2.0 5.0 0.00 0.00 0.00 99 1018.4
20260905070159 66 36 1.0 6.0 0.00 0.00 0.00 99 1018.6
20260905065657 66 121 1.0 2.0 0.00 0.00 0.00 98 1018.9
20260905065151 66 2 2.0 5.0 0.00 0.00 0.00 98 1019.0
20260905064647 66 146 0.0 5.0 0.00 0.00 0.00 98 1019.0
20260905064143 66 223 0.0 7.0 0.00 0.00 0.00 98 1018.8
20260905063640 66 34 3.0 5.0 0.00 0.00 0.00 98 1018.9
20260905063138 66 302 3.0 5.0 0.00 0.00 0.00 98 1018.8
20260905062633 66 8 2.0 2.0 0.00 0.00 0.00 97 1018.8
20260905062132 66 315 1.0 5.0 0.00 0.00 0.00 97 1018.8
20260905061627 66 347 1.0 2.0 0.00 0.00 0.00 97 1018.6
20260905061126 67 68 0.0 0.0 0.00 0.00 0.00 97 1018.6
20260905060622 67 340 0.0 3.0 0.00 0.00 0.00 97 1018.4
20260905060119 67 339 0.0 1.0 0.00 0.00 0.00 97 1018.5
20260905055617 67 92 1.0 5.0 0.00 0.00 0.00 96 1018.5
20260905055112 67 354 0.0 7.0 0.00 0.00 0.00 96 1018.4
20260905054608 67 354 0.0 2.0 0.00 0.00 0.00 96 1018.3
20260905054103 67 293 0.0 2.0 0.00 0.00 0.00 96 1018.1
20260905053603 67 314 2.0 3.0 0.00 0.00 0.00 96 1018.3
20260905053058 68 12 0.0 6.0 0.00 0.00 0.00 95 1018.2
20260905052557 68 336 3.0 3.0 0.00 0.00 0.00 95 1018.2
20260905052052 68 218 0.0 5.0 0.00 0.00 0.00 95 1018.0
20260905051548 68 349 0.0 1.0 0.00 0.00 0.00 95 1017.9
20260905051044 68 278 1.0 6.0 0.00 0.00 0.00 95 1017.8
20260905050540 68 303 2.0 8.0 0.00 0.00 0.00 94 1018.2
20260905050037 68 331 0.0 1.0 0.00 0.00 0.00 94 1018.2
20260905045531 68 357 0.0 5.0 0.00 0.00 0.00 94 1018.0
20260905045027 68 331 0.0 2.0 0.00 0.00 0.00 94 1018.2
20260905044526 69 354 2.0 5.0 0.00 0.00 0.00 93 1018.1
20260905044021 69 355 1.0 6.0 0.00 0.00 0.00 93 1017.9
20260905043520 69 26 1.0 7.0 0.00 0.00 0.00 93 1018.1
20260905043016 69 359 0.0 3.0 0.00 0.00 0.00 93 1018.1
20260905042514 69 357 1.0 6.0 0.00 0.00 0.00 92 1018.2
20260905042010 69 357 3.0 5.0 0.00 0.00 0.00 92 1018.0
20260905041505 69 342 1.0 3.0 0.00 0.00 0.00 92 1017.9
20260905041001 70 50 0.0 5.0 0.00 0.00 0.00 92 1018.2
20260905040500 70 2 1.0 2.0 0.00 0.00 0.00 91 1018.2
20260905035959 70 344 1.0 2.0 0.00 0.00 0.00 91 1018.2
20260905035454 70 22 1.0 2.0 0.00 0.00 0.00 91 1018.2
20260905034952 70 356 1.0 3.0 0.00 0.00 0.00 90 1018.1
20260905034447 71 328 5.0 7.0 0.00 0.00 0.00 90 1018.1
20260905033945 71 1 3.0 7.0 0.00 0.00 0.00 90 1018.2
20260905033445 71 327 2.0 5.0 0.00 0.00 0.00 89 1018.1
20260905032940 71 262 1.0 7.0 0.00 0.00 0.00 89 1018.0
20260905032436 71 89 0.0 6.0 0.00 0.00 0.00 89 1018.0
20260905031930 71 330 1.0 2.0 0.00 0.00 0.00 88 1018.0
20260905031426 71 59 1.0 5.0 0.00 0.00 0.00 88 1018.0
20260905030921 72 280 2.0 3.0 0.00 0.00 0.00 88 1018.1
20260905030417 72 36 1.0 3.0 0.00 0.00 0.00 87 1018.1
20260905025915 72 77 0.0 6.0 0.00 0.00 0.00 87 1017.8
20260905025411 73 328 1.0 8.0 0.00 0.00 0.00 86 1017.8
20260905024908 73 101 3.0 7.0 0.00 0.00 0.00 86 1018.0
20260905024402 73 7 3.0 5.0 0.00 0.00 0.00 86 1017.8
20260905023858 73 10 1.0 7.0 0.00 0.00 0.00 85 1017.8
20260905023353 74 291 3.0 11.0 0.00 0.00 0.00 85 1017.7
20260905022852 74 3 1.0 7.0 0.00 0.00 0.00 85 1017.6
20260905022347 74 2 3.0 6.0 0.00 0.00 0.00 84 1017.7
20260905021842 74 336 2.0 7.0 0.00 0.00 0.00 84 1017.5
20260905021337 75 293 7.0 9.0 0.00 0.00 0.00 84 1017.6
20260905020832 75 322 3.0 9.0 0.00 0.00 0.00 83 1017.3
20260905020326 75 333 4.0 9.0 0.00 0.00 0.00 83 1017.3
20260905015826 76 0 1.0 7.0 0.00 0.00 0.00 83 1017.3
20260905015320 76 42 2.0 7.0 0.00 0.00 0.00 82 1017.3
20260905014819 76 34 0.0 5.0 0.00 0.00 0.00 83 1017.0
20260905014315 76 64 0.0 3.0 0.00 0.00 0.00 83 1017.3
20260905013810 76 322 0.0 2.0 0.00 0.00 0.00 83 1017.4
20260905013306 77 51 0.0 1.0 0.00 0.00 0.00 83 1017.2
20260905012801 77 146 0.0 1.0 0.00 0.00 0.00 82 1017.1
20260905012256 77 232 0.0 3.0 0.00 0.00 0.00 81 1017.0
20260905011753 77 183 0.0 3.0 0.00 0.00 0.00 80 1016.8
20260905011249 77 312 1.0 3.0 0.00 0.00 0.00 80 1016.6
20260905010743 77 24 1.0 3.0 0.00 0.00 0.00 81 1016.7
20260905010239 78 20 1.0 3.0 0.00 0.00 0.00 80 1016.9
20260905005736 78 290 3.0 3.0 0.00 0.00 0.00 79 1016.7
20260905005231 78 275 1.0 2.0 0.00 0.00 0.00 80 1016.5
20260905004730 78 203 0.0 0.0 0.00 0.00 0.00 79 1016.6
20260905004226 79 320 1.0 2.0 0.00 0.00 0.00 78 1016.8
20260905003725 79 307 0.0 1.0 0.00 0.00 0.00 78 1016.7
20260905003221 80 286 0.0 1.0 0.00 0.00 0.00 77 1016.7
20260905002717 80 301 1.0 6.0 0.00 0.00 0.00 76 1016.6
20260905002217 81 285 1.0 3.0 0.00 0.00 0.00 75 1016.6
20260905001712 81 350 1.0 3.0 0.00 0.00 0.00 74 1016.4
20260905001211 81 353 1.0 3.0 0.00 0.00 0.00 74 1016.3
20260905000706 82 24 2.0 5.0 0.00 0.00 0.00 74 1016.5
20260905000204 82 335 1.0 3.0 0.00 0.00 0.00 74 1016.4
20260904235702 82 359 2.0 5.0 0.00 0.00 0.00 75 1016.4
20260904235157 82 275 3.0 3.0 0.00 0.00 0.00 75 1016.4
20260904234652 82 353 1.0 3.0 0.00 0.00 0.00 75 1016.5
20260904234148 83 318 3.0 5.0 0.00 0.00 0.00 74 1016.5
20260904233643 82 264 1.0 2.0 0.00 0.00 0.00 75 1016.3
20260904233139 82 328 2.0 3.0 0.00 0.00 0.00 75 1016.4
20260904232635 83 330 3.0 5.0 0.00 0.00 0.00 75 1016.4
20260904232131 83 317 1.0 6.0 0.00 0.00 0.00 75 1016.2
20260904231626 83 152 1.0 3.0 0.00 0.00 0.00 75 1016.3
20260904231121 83 187 2.0 2.0 0.00 0.00 0.00 75 1016.1
20260904230621 84 248 3.0 6.0 0.00 0.00 0.00 75 1016.2
20260904230116 84 214 0.0 5.0 0.00 0.00 0.00 75 1016.3
20260904225613 84 19 2.0 3.0 0.00 0.00 0.00 75 1016.0
20260904225108 84 261 2.0 3.0 0.00 0.00 0.00 75 1016.0
20260904224603 84 91 2.0 7.0 0.00 0.00 0.00 75 1016.0
20260904224058 84 134 1.0 5.0 0.00 0.00 0.00 76 1015.9
20260904223557 85 126 1.0 3.0 0.00 0.00 0.00 76 1015.9
20260904223053 84 335 3.0 6.0 0.00 0.00 0.00 76 1016.1
20260904222549 85 257 2.0 5.0 0.00 0.00 0.00 75 1016.0
20260904222044 85 152 1.0 5.0 0.00 0.00 0.00 75 1015.7
20260904221538 85 227 3.0 5.0 0.00 0.00 0.00 74 1015.8
20260904221033 85 124 0.0 2.0 0.00 0.00 0.00 75 1015.5
20260904220533 85 110 1.0 6.0 0.00 0.00 0.00 76 1015.6
20260904220029 86 234 0.0 1.0 0.00 0.00 0.00 76 1015.5
20260904215528 86 275 2.0 3.0 0.00 0.00 0.00 74 1015.4
20260904215024 86 187 1.0 3.0 0.00 0.00 0.00 74 1015.6
20260904214520 86 85 2.0 5.0 0.00 0.00 0.00 74 1015.7
20260904214015 86 311 1.0 7.0 0.00 0.00 0.00 74 1015.4
20260904213512 86 215 1.0 3.0 0.00 0.00 0.00 74 1015.2
20260904213009 85 201 0.0 2.0 0.00 0.00 0.00 75 1015.5
20260904212503 85 109 0.0 5.0 0.00 0.00 0.00 74 1015.5
20260904211958 86 338 3.0 3.0 0.00 0.00 0.00 72 1015.5
20260904211452 86 318 3.0 5.0 0.00 0.00 0.00 74 1015.5
20260904210948 86 221 1.0 2.0 0.00 0.00 0.00 73 1015.5
20260904210447 86 135 1.0 6.0 0.00 0.00 0.00 75 1015.6
20260904205943 85 248 1.0 6.0 0.00 0.00 0.00 75 1015.6
20260904205438 85 217 2.0 5.0 0.00 0.00 0.00 75 1015.6